Tracking 31027 objects as of 19-Jul-2025
HD Live streaming from Space Station
objects crossing your sky now

STARLINK-11227

Track STARLINK-11227 now!
10-day predictions
STARLINK-11227 is classified as:


NORAD ID: 60303
Int'l Code: 2024-133C
Perigee: 366.1 km
Apogee: 367.6 km
Inclination: 53.2 °
Period: 91.7 minutes
Semi major axis: 6737 km
RCS: Unknown
Launch date: July 28, 2024
Source: United States (US)
Launch site: AIR FORCE WESTERN TEST RANGE (AFWTR)
Your satellite tracking list
Your tracking list is empty




NASA's NSSDC Master Catalog

Two Line Element Set (TLE):
1 60303U 24133C   25199.77464303 -.00001294  00000-0 -58252-5 0  9990
2 60303  53.1586 219.4479 0001100  77.1759 282.9381 15.69705965 57071
Source of the keplerian elements: AFSPC